www.pogodaiklimat.ru

Погода и климат >> Архив погоды >> Грузия >> Зугдиди


ПОГОДА в Зугдиди

АРХИВ ПОГОДЫ в Зугдиди

Время (UTC), дата Ветер
(напр.,м/с)
 
Видим.   Явления Облачность Т
(С)
Тd
(С)
f
(%)
Тe
(С)
Тes
(С)
Комфортность P
(гПа)
Po
(гПа)
Тmin
(С)
Tmax
(С)
R
(мм)
R24
(мм)
S
(см)
12 17.01 З 4 н/о н/о +5.3 +0.5 71 +2 +2 прохладно 1022.6 1002.4 164
15 17.01 ЮЗ 4 н/о н/о +3.6 +2.2 91 -1 -1 прохладно 1024.8 1004.5 +7.6
18 17.01 ЮЗ 2 н/о н/о +3.2 +1.8 91 0 0 по сезону 1027.0 1006.6 +6.3 239
21 17.01 ЮВ 3 н/о н/о +2.3 +1.8 96 -2 -2 прохладно 1028.7 1008.2 15
00 18.01 В 3 н/о н/о +2.2 +1.6 96 -2 -2 по сезону 1029.6 1009.0 36
03 18.01 В 2 н/о н/о +2.9 +1.4 90 -0 -0 по сезону 1029.8 1009.3
06 18.01 В 3 н/о н/о +3.1 +0.8 85 -1 -1 прохладно 1031.2 1010.6 +2.0 88
09 18.01 ЮВ 4 н/о н/о +4.7 +1.7 81 +1 +1 прохладно 1031.3 1010.9 60
12 18.01 В 3 н/о н/о +5.7 +2.0 77 +3 +3 прохладно 1030.1 1009.8 192
15 18.01 ЮВ 2 н/о н/о +3.7 +1.5 86 +1 +1 прохладно 1030.2 1009.7 +7.0
18 18.01 СВ 2 н/о н/о +2.6 +1.0 89 -1 -1 прохладно 1029.9 1009.4 +7.0 261
21 18.01 СВ 2 н/о н/о +0.2 -0.4 96 -4 -4 прохладно 1029.7 1009.0
00 19.01 СВ 1 н/о н/о -1.8 -2.4 96 -4 -4 прохладно 1028.9 1008.1
03 19.01 штиль 0 н/о н/о -2.2 -3.3 92 -3 -3 прохладно 1027.8 1006.9
06 19.01 СВ 1 н/о н/о 0.0 -2.4 84 -2 -2 прохладно 1028.1 1007.4 -3.1
09 19.01 З 2 н/о н/о +9.2 -4.9 37 +8 +8 тепло 1027.6 1007.6
12 19.01 З 3 н/о н/о +9.9 -5.0 35 +8 +8 по сезону 1027.3 1007.4
15 19.01 штиль 0 н/о н/о +4.8 -1.3 65 +4 +4 по сезону 1028.5 1008.1 +10.8
18 19.01 СВ 1 н/о н/о +1.7 -1.4 80 0 0 по сезону 1029.4 1008.8 +10.8
21 19.01 СВ 1 н/о н/о -0.2 -1.4 92 -2 -2 прохладно 1030.5 1009.8
00 20.01 СВ 3 н/о н/о -1.1 -1.9 94 -6 -6 холодно 1031.0 1010.2
03 20.01 ЮВ 2 н/о н/о +0.2 -1.4 89 -3 -3 прохладно 1031.1 1010.4
06 20.01 ЮВ 2 н/о н/о +3.4 -1.1 72 +1 +1 по сезону 1031.3 1010.8 -1.3
09 20.01 ЮВ 4 н/о н/о +9.2 -2.4 44 +7 +7 тепло 1030.8 1010.7
12 20.01 ЮЗ 2 н/о н/о +10.8 -3.5 36 +10 +10 тепло 1029.0 1009.1
15 20.01 штиль 0 н/о н/о +5.1 -0.5 67 +4 +4 по сезону 1029.2 1008.9 +11.6
18 20.01 СВ 2 н/о н/о +3.3 -2.1 68 +1 +1 по сезону 1029.1 1008.7 +11.6
21 20.01 СВ 2 н/о н/о +2.6 -2.9 67 -0 -0 по сезону 1028.9 1008.4
00 21.01 СВ 2 н/о н/о +0.3 -2.1 84 -3 -3 прохладно 1028.0 1007.4
03 21.01 штиль 0 н/о н/о -0.9 -2.5 89 -2 -2 прохладно 1026.9 1006.2
06 21.01 ЮВ 1 н/о н/о +2.5 -1.1 77 +1 +1 по сезону 1025.7 1005.3 -1.7
09 21.01 З 3 н/о н/о +12.7 -2.4 35 +12 +12 тепло 1024.9 1005.2
12 21.01 Ю 7 н/о н/о +13.9 -4.3 28 +12 +12 тепло 1023.4 1003.8
15 21.01 В 2 н/о н/о +9.0 -4.5 38 +8 +8 тепло 1023.6 1003.7 +15.2
18 21.01 С 2 н/о н/о +1.9 -2.0 75 -1 -1 прохладно 1024.3 1003.9 +15.2
21 21.01 Ю 1 н/о н/о +3.6 -0.2 76 +2 +2 по сезону 1024.0 1003.7
00 22.01 В 1 н/о н/о +4.4 +1.1 79 +3 +3 по сезону 1023.6 1003.3
03 22.01 штиль 0 н/о н/о +4.9 +0.2 72 +4 +4 по сезону 1024.1 1003.9
06 22.01 СВ 2 н/о н/о +5.2 +2.9 85 +3 +3 по сезону 1025.8 1005.5 +1.6 0.4
09 22.01 С 4 н/о н/о +5.7 +5.1 96 +2 +2 по сезону 1026.4 1006.2 1
12 22.01 СВ 3 н/о н/о +5.5 +4.8 95 +2 +2 прохладно 1026.1 1005.8 5
15 22.01 С 2 н/о н/о +5.0 +4.8 99 +2 +2 по сезону 1027.2 1006.9 +9.0
18 22.01 штиль 0 н/о н/о +4.9 +4.9 100 +4 +4 по сезону 1027.5 1007.2 +6.6 7
21 22.01 В 2 н/о н/о +5.1 +5.0 99 +2 +2 по сезону 1027.3 1007.0
00 23.01 штиль 0 н/о н/о +3.8 +3.3 97 +3 +3 по сезону 1026.1 1005.7
03 23.01 штиль 0 н/о н/о +0.5 +0.5 100 -1 -1 по сезону 1025.3 1004.7
06 23.01 В 1 н/о н/о +2.5 +2.3 99 +1 +1 по сезону 1025.0 1004.6 +0.2
09 23.01 В 5 н/о н/о +11.6 -2.2 38 +10 +10 тепло 1023.5 1003.8
12 23.01 В 4 н/о н/о +12.5 -1.0 39 +11 +11 тепло 1022.4 1002.7
15 23.01 СВ 2 н/о н/о +9.8 -0.4 49 +9 +9 тепло 1022.5 1002.6 +12.5
18 23.01 В 2 н/о н/о +10.8 -2.3 40 +10 +10 тепло 1022.7 1002.9 +12.5
21 23.01 В 5 н/о н/о +10.5 -3.2 38 +8 +8 тепло 1022.7 1002.9
00 24.01 В 4 н/о н/о +9.6 -3.0 41 +7 +7 тепло 1021.8 1002.0
03 24.01 В 4 н/о н/о +9.3 -4.1 39 +7 +7 тепло 1020.5 1000.6
06 24.01 В 5 н/о н/о +11.3 -4.5 33 +9 +9 тепло 1020.1 1000.3 +3.7
09 24.01 В 7 н/о н/о +15.8 -3.2 27 +14 +14 тепло 1018.5 999.1

 

Местоположение метеостанции Зугдиди (Грузия): широта 42.50 долгота 41.88 высота над уровнем моря 117 м.

В архиве по умолчанию представлена погода в Зугдиди за последнюю неделю. Архивные данные за месяц целиком и за предыдущие месяцы, начиная с января 2011 года, Вы можете получить, выбрав интересующий диапазон дат из раскрывающегося списка и нажав кнопку "Ввод!".


*Определитесь, кто Вы:
робот инопланетянин человек

Внимание! Время в таблицах - всемирное. Для получения местного времени необходимо прибавить поправку, которая равна 4 ч.

Смотрите также архив погоды в соседних городах и на ближайших метеорологических станциях:

Погода в Кутаиси (Грузия) (67 км)
Погода на Клухорском Перевале (Карачаево-Черкессия, Россия) (68 км)
Погода в Чегете (Кабардино-Балкария, Россия) (96 км)
Погода в Терсколе (Кабардино-Балкария, Россия) (98 км)
Погода на Леднике Гарабаши (Карачаево-Черкессия, Россия) (99 км)
Погода в Домбае (Карачаево-Черкессия, Россия) (99 км)
Погода в Батуми (Грузия) (101 км)
Погода в Сакаре (Грузия) (103 км)
Погода в Амролаури (Грузия) (104 км)
Погода в Теберде (Карачаево-Черкессия, Россия) (106 км)

Пояснения к столбцам:

Ветер - указаны скорость ветра в м/с - средняя за 10 мин, порывы в срок и между сроками (в фигурных скобках) и направление, откуда дует ветер: С - северный, СВ - северо-восточный, В - восточный, ЮВ - юго-восточный, Ю - южный, ЮЗ - юго-западный, З - западный, СЗ - северо-западный.
Видимость - горизонтальная дальность видимости в метрах или километрах. При видимости от 1 до 10 км при отсутствии осадков обычно наблюдается дымка, при ухудшении видимости до 1 км и менее - туман. В сухую погоду видимость может ухудшаться дымом, пылью или мглою.
Явления - указаны атмосферные явления, наблюдавшиеся в срок или в последний час перед сроком; фигурными скобками обозначены явления, наблюдавшиеся между сроками (за 1-3 часа до срока); квадратными скобками обозначены град или гололедные отложения с указанием их диаметра в мм.
Облачность - указаны через наклонную черту общая и нижняя облачность в баллах и высота нижней границы облаков в метрах; квадратными скобками обозначены формы облаков: Ci - перистые, Cs - перисто-слоистые, Cc - перисто-кучевые, Ac - высококучевые, As - высокослоистые, Sc - слоисто-кучевые, Ns - слоисто-дождевые, Cu - кучевые, Cb - кучево-дождевые. Подробнее классификацию облаков см. в Атласе облаков (PDF).
T - Температура воздуха - температура, измеренная на высоте 2 м над землей.
Td - Температура точки росы - температура, при понижении до которой содержащийся в воздухе водяной пар достигнет насыщения.
f - Относительная влажность воздуха - влажноcть воздуха, измеренная на высоте 2 м над землей.
Te - Эффективная температура - температура, которую ощущает одетый по сезону человек в тени. Характеристика душности погоды. При расчете учитывается влияние влажности воздуха и скорости ветра на теплоощущения человека.
Tes - Эффективная температура на солнце - температура, которую ощущает человек, с поправкой на солнечный нагрев. Характеристика знойности погоды. Зависит от высоты солнца над горизонтом, облачности и скорости ветра. Ночью, в пасмурную погоду, а также при ветре 12 м/с и более поправка равна нулю.
P - Атмосферное давление - приведенное к уровню моря атмосферное давление.
Po - Атмосферное давление - измеренное на уровне метеостанции атмосферное давление.
Tmin - Минимальная температура - минимум температуры воздуха на высоте 2 м над землей.
Tmax - Максимальная температура - максимум температуры воздуха на высоте 2 м над землей.
R - Количество осадков - Количество выпавших осадков за период времени, мм. При наведении курсора мыши на число - период времени, за который выпало указанное количество осадков.
R24 - Количество осадков - Количество выпавших осадков за 24 часа, мм.
S - Снежный покров - Высота снежного покрова, см. При наведении курсора мыши на число - состояние снежного покрова и степень покрытия местности в баллах.